COSMOS 1275 DEB, 13798

Orbit data source: Space-Track

COSMOS 1275 DEB, 13798 is space debris in LEO originally from a launch on Thu, 04 Jun 1981 UTC launched from the Plesetsk Missile And Space Complex (PKMTR). Debris objects in space refer to the collection of defunct objects orbiting the Earth. Examples of debris include non-operational satellites, rocket bodies, and fragments generated from explosions, collisions, or faulty payload assembly.

Loading next visibility...
Identifier
13798, 1981-053GS
Orbit
LEO
Country
Flag of CISCIS
Related business
Manufacturer
Unknown
Mission
Spacecraft
Bus & Motor
Unknown
Mass
Unknown
Launch date (UTC)
1981-06-04 (45 years ago)
Launch vehicle
Unknown
Launch site
Plesetsk Missile And Space Complex (PKMTR)
Object type
Payload
Rocket body
Debris
Shape & HBR
Unknown shape, 0.1 m
Radar Cross Section
Small (<0.1 m²)

Expand to show TLE details & history
Last TLE update: 7 hours ago

TLE from 7 hours ago
0 COSMOS 1275 DEB
1 13798U 81053GS  26119.32517604  .00000923  00000-0  83779-3 0  9993
2 13798  83.0074 140.9623 0074278 262.4891  96.7826 13.81338328235634
Epoch: 2026-04-29T07:48Z
TLE epoch observation values (Epoch: 2026-04-29T07:48:15.209Z)
Latitude
-0.00004°
Longitude
166.61117°
Altitude
968.89 km
Speed
7.364 km/s
True Right ascension
09h 23m 50s
True Declination
0° 00' 00"
Sunlit
Object was in daylight at epoch
Visualization orbit readout
Latitude
Unknown
Longitude
Unknown
Altitude
Unknown
Speed
Unknown
Apparent Right ascension
Unknown
Apparent Declination
Unknown
Sunlit
N/A
Visualization observer readout
Local Sidereal Time
22:01:56
Azimuth
Unknown
Elevation
Unknown
Doppler factor
Unknown
Orbital elements
Apogee altitude
1,010.76 km
Perigee altitude
901.802 km
Semi-major axis
7,334.418 km
Eccentricity
0.00743
Inclination
83.0074°
RAAN
140.9623°
Arg. of periapsis
262.4891°
True anomaly
97.62685°
Mean anomaly
96.7826°
Eccentric anomaly
97.20482°
Mean motion
3.45537 °/min
Orbital period
104.19 mins
BSTAR
0.00083779
Loading maneuver chart data...
Computing Atmospheric mass density...
Loading historical data...
Loading historical data...
Loading historical data...
Loading historical data...
Loading historical data...
Loading historical data...
Loading historical data...

Documentation

Showing up to 5 results
|